Location: Burbank
(38.7788°N, 114.0429°W)
Time: 19:35:58
(UTC+00:00)

Envisat - Visible Passes

Search period start: 10 April 2026 00:00
Search period end: 20 April 2026 00:00
Orbit: 761 x 762 km, 98.4° (Epoch: 10 April)

Date Brightness Start Highest point End Pass type
(mag) Time Alt. Az. Time Alt. Az. Time Alt. Az.
10 Apr 4.7 09:36:07 10° NNE 09:39:16 29° ENE 09:39:16 29° ENE visible
10 Apr 4.2 11:15:23 10° NNW 11:19:24 25° WNW 11:19:24 25° WNW visible
11 Apr 5.6 08:59:46 10° ENE 09:01:07 13° ENE 09:01:07 13° ENE visible
11 Apr 3.3 10:36:57 10° N 10:41:15 53° NW 10:41:15 53° NW visible
12 Apr 3.8 09:59:08 10° NNE 10:03:06 49° NE 10:03:06 49° NE visible
12 Apr 4.7 11:39:36 10° NNW 11:42:32 16° WNW 11:43:14 15° WNW visible
13 Apr 5.0 09:21:59 10° NE 09:24:57 23° ENE 09:24:57 23° ENE visible
13 Apr 3.8 11:00:34 10° N 11:05:05 34° WNW 11:05:05 34° WNW visible
14 Apr 3.1 10:22:23 10° N 10:26:55 69° NNW 10:26:55 69° NNW visible
15 Apr 4.1 09:44:47 10° NNE 09:48:46 40° ENE 09:48:46 40° ENE visible
15 Apr 4.4 11:24:29 10° NNW 11:28:13 21° WNW 11:28:54 21° WNW visible
16 Apr 5.2 09:08:03 10° NE 09:10:37 18° ENE 09:10:37 18° ENE visible
16 Apr 3.3 10:45:52 10° N 10:50:43 47° WNW 10:50:45 47° WNW visible
17 Apr 3.1 10:07:54 10° NNE 10:12:35 70° ENE 10:12:35 70° ENE visible
17 Apr 4.9 11:49:01 10° NW 11:51:13 13° WNW 11:52:43 12° W visible
18 Apr 4.5 09:30:34 10° NE 09:34:26 30° E 09:34:26 30° E visible
18 Apr 4.0 11:09:34 10° N 11:13:51 28° WNW 11:14:33 27° W visible
19 Apr 5.5 08:54:32 10° ENE 08:56:16 13° E 08:56:16 13° E visible
19 Apr 2.9 10:31:15 10° N 10:36:16 65° WNW 10:36:24 65° W visible
